sat.trackr.live / text

‹ back to catalog

ABS-2

NORAD 39508 · 2014-006A

PAYLOAD ACTIVE UNKNOWN

§ Identity

Operator
Country
ABS
Launch date
2014-02-06
Launch site
FRGUI
Launch vehicle
Mass (kg)
RCS (m²)
0.35

Purposes: comms

External: N2YO · Heavens-Above · Gunter

§ Orbital elements

Epoch: 2026-09-20T00:10:09.905376Z

Period
1,436.12 min
Inclination
0.0206°
Eccentricity
0.0003467
Mean motion
1.00269871 rev/d
Perigee alt
35,772.5 km
Apogee alt
35,801.8 km
Semi-major
42,165.3 km
B*
0.0000e+0
RAAN
164.6110°
Arg perigee
11.3525°
Mean anomaly
260.4184°
Rev number
4,622

§ Raw data

ABS-21 39508U 14006A   26263.00705909  .00000000  00000+0  00000+0 0  99932 39508   0.0206 164.6110 0003467  11.3525 260.4184  1.00269871 46224

JSON: /api/v1/satellites/39508 · /tle

For live sub-satellite position, see the globe view (requires WebGL).

§ Visibility from observer

Set your observer location to see the next 7 days of passes ≥ 10°. The values pass through the URL so the page stays shareable.

No JS? Fill the form by hand. The geolocation button needs JavaScript.